Regional Weather Roundup
Issued by NWS

Home | Current Version | Previous Version | Text Only | Print | Product List | Glossary Off
Versions: 1 2 3 4 5 6 7 8 9 10 11 12 13 14 15 16 17 18 19 20 21 22 23 24 25 26 27 28 29 30 31 32 33 34 35 36 37 38 39 40 41 42 43 44 45 46 47 48 49 50

000
ASUS43 KIND 032109
RWRIN

WEATHER ROUNDUP FOR INDIANA
NATIONAL WEATHER SERVICE INDIANAPOLIS IN
500 PM EDT SUN MAY 03 2015

NOTE: "FAIR" INDICATES FEW OR NO CLOUDS BELOW 12,000 FEET WITH NO
SIGNIFICANT WEATHER AND/OR OBSTRUCTIONS TO VISIBILITY.

* - STATION DOES NOT REPORT WEATHER SUCH AS PRECIPITATION OR FOG.

+ - STATION NOT QUALITY CONTROLLED BY THE NATIONAL WEATHER SERVICE.
    USE DATA WITH CAUTION...ESPECIALLY DEWPOINT AND RELATIVE
    HUMIDITY OBSERVATIONS.

INZ001>003-010>013-019-020-032200-
NORTHWEST INDIANA

CITY           SKY/WX    TMP DP  RH WIND       PRES   REMARKS
GARY /AIRPORT/ PTSUNNY   81 N/A N/A S12       29.92F
KNOX *+        PTSUNNY   79  -8   3 SW21G26   29.95F
LA PORTE +     MOSUNNY   80  42  25 S12       29.96F
MICHIGAN CITY+ MOSUNNY   77  34  20 SW14      29.94F
MONTICELLO +   SUNNY     77  49  36 SW15G23   29.97F
VALPARAISO     PTSUNNY   78  41  26 S10G22    29.95F

$$

LMZ046-743>745-032200-
SOUTHERN LAKE MICHIGAN

STATION/POSITION TIME  TEMP    WIND        PRES    WAVE
                       AIR SEA DIR/SP/G            HT
                 (UTC) (F)     (DEG/KT/KT) (MB)    (FT)
BURNS HARBOR     2100   76     200/ 12/ 17 1014.2S
MICHIGAN CITY    2100   78     190/ 14/ 16   N/A
5NW MICH CITY    2100   63 51  220/  6/  8   N/A     1

$$

INZ004-005-014>016-021>024-032200-
NORTH CENTRAL INDIANA

CITY           SKY/WX    TMP DP  RH WIND       PRES   REMARKS
GOSHEN         PTSUNNY   78  47  33 SW15G26   29.98F
LOGANSPORT +   MOSUNNY   77  37  24 S10G21    30.00F
ROCHESTER +    MOSUNNY   81  43  26 S10       30.00F
SOUTH BEND     PTSUNNY   79  42  26 S13G26    29.97F
WARSAW +         N/A     77  46  33 MISG        N/A

$$

INZ006>009-017-018-025>027-032200-
NORTHEAST INDIANA

CITY           SKY/WX    TMP DP  RH WIND       PRES   REMARKS
ANGOLA *+      MOSUNNY   79  72  78 S12       30.00F
AUBURN +       MOSUNNY   77  43  29 SW7       30.02F
FORT WAYNE     PTSUNNY   78  46  32 SW15G21   30.02F
HUNTINGTON +   MOSUNNY   76  46  33 SW10G17   30.01F

$$

INZ028-029-035-036-043>045-051>053-032200-
WEST CENTRAL INDIANA

CITY           SKY/WX    TMP DP  RH WIND       PRES   REMARKS
CRAWFORDSVL +  MOSUNNY   78  33  20 SW16G24   30.01F
GREENCASTLE +  MOSUNNY   75  39  27 S10G20    30.03F
LAFAYETTE      MOSUNNY   77  47  34 SW8G21    29.98F
TERRE HAUTE    SUNNY     79  47  32 S14G26    30.01F

$$

INZ030>032-037>040-046>048-054>057-064-065-032200-
CENTRAL INDIANA

CITY           SKY/WX    TMP DP  RH WIND       PRES   REMARKS
CP ATTERBURY + SUNNY     79  46  31 S9        30.04F
FISHERS *+     MOSUNNY   77  54  44 S10       30.02F
FRANKFORT +    SUNNY     79  49  34 S8G16     30.03F
INDIANAPOLIS   PTSUNNY   75  46  35 SW8       30.01F
-EAGLE CREEK   SUNNY     77  44  30 SW13      30.01F
MARION +       MOSUNNY   77  43  30 SW13G20   30.03F
MT COMFORT *+  MOSUNNY   79  21  11 S13G20    30.04F
SHELBYVILLE    MOSUNNY   79  48  33 S9G20     30.03F
ZIONSVILLE +   SUNNY     79  42  26 S10G20    30.03F

$$

INZ033-034-041-042-049-050-058-059-032200-
EAST CENTRAL INDIANA

CITY           SKY/WX    TMP DP  RH WIND       PRES   REMARKS
MUNCIE         MOSUNNY   77  46  33 SW10G21   30.03F

$$

INZ060-061-067>069-081>083-085>088-032200-
SOUTHWEST INDIANA

CITY           SKY/WX    TMP DP  RH WIND       PRES   REMARKS
EVANSVILLE     SUNNY     80  48  32 SW10G22   30.04F
HUNTINGBURG *+ SUNNY     79  48  34 S13G21    30.05F
WASHINGTON +   SUNNY     78  39  24 S10G17    30.03S

$$

INZ062-063-066-070>080-084-089>092-032200-
SOUTH CENTRAL AND SOUTHEAST INDIANA

CITY           SKY/WX    TMP DP  RH WIND       PRES   REMARKS
BEDFORD +      SUNNY     79  41  25 S10       30.05
BLOOMINGTON    SUNNY     78  43  28 S8        30.04F
MADISON *+     MOSUNNY   79  39  24 S10       30.08F
NORTH VERNON + SUNNY     77  45  31 SW13      30.06F
SEYMOUR +      SUNNY     79  50  36 SW14      30.05F

$$



USA.gov is the U.S. government's official web portal to all federal, state and local government web resources and services.